TDRS 13

Last updated on Thu Nov 21 2024 00:02:35 GMT+0000 (Coordinated Universal Time)

1 42915U 17047A 24325.29306306 -.00000100 00000+0 00000+0 0 9995 2 42915 3.5365 348.1708 0011429 129.2213 36.5599 1.00272131 26599
UTC large
Height (km)
Speed (km/s)
/
Latitude / Longitude
Inclination (degrees)
Orbital Period (minutes)
Azimuth
Elevation
Range (km)
Doppler Factor

Next 0 passes for location: London (51.5072 / 0.1276)

Sorry there are no passes over London.